Regional Weather Roundup
Issued by NWS Kansas City/Pleasant Hill, MO

Home | Current Version | Previous Version | Text Only | Print | Product List | Glossary On
Versions: 1 2 3 4 5 6 7 8 9 10 11 12 13 14 15 16 17 18 19 20 21 22 23 24 25 26 27 28 29 30 31 32 33 34 35 36 37 38 39 40 41 42 43 44 45 46 47 48 49 50
000
ASUS43 KEAX 162010
RWREAX

WEATHER ROUNDUP FOR EASTERN KANSAS AND NORTHWEST MISSOURI
NATIONAL WEATHER SERVICE KANSAS CITY/PLEASANT HILL MO
200 PM CST MON JAN 16 2017

KSZ040-057-103>105-MOZ028-029-037-043-162100-
...KANSAS CITY METROPOLITAN AREA...

CITY           SKY/WX    TMP DP  RH WIND       PRES   REMARKS
K.C. INTL      CLOUDY    48  44  86 E6        29.82F FOG
K.C. DOWNTOWN  PTSUNNY   47  32  56 E5        29.83F HAZE
LEES SUMMIT    MOSUNNY   56  50  80 SW14G24   29.83S
OLATHE - IXD   PTSUNNY   50  45  83 S16       29.83S
OLATHE - OJC   PTSUNNY   50  48  93 S16G22    29.82F
LAWRENCE       CLOUDY    47  46  97 S5        29.83F

$$

MOZ001>008-011>017-020>025-030>033-038>040-044>046-053-054-162100-
...NORTHERN AND CENTRAL MISSOURI...

CITY           SKY/WX    TMP DP  RH WIND       PRES   REMARKS
ST. JOSEPH     CLOUDY    41  41 100 E5        29.84F
MOSBY            N/A     48  48 100 CALM      29.84F
WARRENSBURG    PTSUNNY   59  52  77 SW9       29.83S
WHITEMAN AFB   PTSUNNY   61  57  88 S13       29.81F
CLINTON        MOSUNNY   63  54  72 S14G20    29.84F
SEDALIA        PTSUNNY   61  54  77 S14G22    29.86F
WARSAW         NOT AVBL
CHILLICOTHE      N/A     44  44 100 SE5       29.87F
KIRKSVILLE     FOG       38  38 100 E6        29.90F VSB 1/4 WCI  33

$$

MOZ041-047>049-056>058-063>065-088>090-097-162100-
...EASTERN AND SOUTHERN MISSOURI...

CITY           SKY/WX    TMP DP  RH WIND       PRES   REMARKS
ST. LOUIS INTL LGT RAIN  51  48  89 SE10      29.97F FOG
SPIRIT OF STL  CLOUDY    50  49  96 E6        29.95F FOG
COLUMBIA       LGT RAIN  53  52  96 SE7       29.88S FOG
JEFFERSON CITY CLOUDY    57  54  89 SE7       29.88F
ROLLA          CLOUDY    55  53  93 S16       29.88F
OSAGE BEACH    CLOUDY    57  54  89 S9G17     29.88F
SPRINGFIELD    CLOUDY    57  55  93 S12       29.85F
BRANSON        CLOUDY    57  57 100 S8        29.89F
JOPLIN         PTSUNNY   58  52  80 SW13      29.86S
WEST PLAINS    LGT RAIN  54  54 100 S9        29.92F FOG

$$

IAZ060-094-KSZ022-034>040-054-083-096-NEZ052-066-093-162100-
...KANSAS...SOUTHEAST NEBRASKA AND IOWA...

CITY           SKY/WX    TMP DP  RH WIND       PRES   REMARKS
TOPEKA         CLOUDY    49  44  83 S13       29.82S
MANHATTAN      LGT RAIN  38  38 100 NE5       29.81F WCI  34
EMPORIA        LGT RAIN  40  39  97 SW9       29.83S WCI  34
CHANUTE        CLOUDY    47  43  86 SW15      29.85F
WICHITA        CLOUDY    39  37  92 SW12      29.85S WCI  32
OMAHA          LGT RAIN  34  31  88 N8        29.90F FOG     WCI  27
LINCOLN        RAIN      33  32  96 N13       29.89S FOG     WCI  24
FALLS CITY     FOG       36  36 100 NE6       29.82F VSB 1/4 WCI  31
LAMONI         FOG       34  34 100 E5        29.85F VSB 1/4 WCI  30
DES MOINES     DRIZZLE   34  32  92 E6        29.90F WCI  29

$$




USA.gov is the U.S. government's official web portal to all federal, state and local government web resources and services.